IRIDIUM 33 DEB, 40996

Orbit data source: Space-Track

IRIDIUM 33 DEB, 40996 is space debris in LEO originally from a launch on Sun, 14 Sep 1997 UTC launched from the Tyuratam Missile And Space Complex (TTMTR). The debris from Iridium 33, an American commercial communications satellite, has been tracked extensively since its accidental collision with the defunct Russian satellite Cosmos 2251 in 2009. This event, occurring at high speed in low Earth orbit (LEO), generated thousands of pieces of space debris, significantly increasing the risk of further collisions. The Iridium 33 debris cloud has impacted space traffic management and orbital debris mitigation strategies, making it a subject of ongoing study in space situational awareness.

Loading next visibility...
Identifier
40996, 1997-051ABJ
Orbit
LEO
Country
Flag of USUS
Related business
Manufacturer
Unknown
Mission
Spacecraft
Bus & Motor
Unknown
Mass
Unknown
Launch date (UTC)
1997-09-14 (28 years ago)
Launch vehicle
Unknown
Launch site
Tyuratam Missile And Space Complex (TTMTR)
Object type
Payload
Rocket body
Debris
Shape & HBR
Unknown shape, 0.1 m
Radar Cross Section
Small (<0.1 m²)

Expand to show TLE details & history
Last TLE update: 3 days ago

TLE from 3 days ago
0 IRIDIUM 33 DEB
1 40996U 97051ABJ 26035.30396612  .00045727  00000-0  35245-2 0  9992
2 40996  86.3525 336.2923 0005403 171.7912 340.3999 15.01406327632903
Epoch: 2026-02-04T07:17Z
TLE epoch observation values (Epoch: 2026-02-04T07:17:42.672Z)
Latitude
27.81058°
Longitude
-89.52436°
Altitude
562.64 km
Speed
7.584 km/s
True Right ascension
10h 17m 30s
True Declination
27° 39' 54"
Sunlit
Object was in full shadow at epoch
Visualization orbit readout
Latitude
Unknown
Longitude
Unknown
Altitude
Unknown
Speed
Unknown
Apparent Right ascension
Unknown
Apparent Declination
Unknown
Sunlit
N/A
Visualization observer readout
Local Sidereal Time
15:40:27
Azimuth
Unknown
Elevation
Unknown
Doppler factor
Unknown
Orbital elements
Apogee altitude
563.178 km
Perigee altitude
555.682 km
Semi-major axis
6,937.567 km
Eccentricity
0.00054
Inclination
86.3525°
RAAN
336.2923°
Arg. of periapsis
171.7912°
True anomaly
340.37912°
Mean anomaly
340.3999°
Eccentric anomaly
340.38951°
Mean motion
3.75606 °/min
Orbital period
95.85 mins
BSTAR
0.0035245
Loading maneuver chart data...
Computing Atmospheric mass density...
Loading historical data...
Loading historical data...
Loading historical data...
Loading historical data...
Loading historical data...
Loading historical data...
Loading historical data...

Documentation

Showing up to 5 results
|